User: anonymous
Location: Mactaquac Provincial Park
(45.9573°N, 66.8897°W)
Time: 05:06:19
(UTC-03:00)
Language:

Cosmos 1766 - Orbit

View from above orbital plane
View from above orbital plane
View from above satellite
View from above satellite

Ground track
Ground track

The orbit data is extracted from the following two-line orbital elements,

1 16881U 86055A   14106.43418271  .00004778  00000-0  33271-3 0  8400
2 16881 082.5100 072.9441 0014835 071.4750 288.8087 15.05160769506916
Epoch (UTC): 16 April 2014 10:25:13
Eccentricity: 0.0014835
inclination: 82.5100°
perigee height: 541 km
apogee height: 561 km
right ascension of ascending node: 72.9441°
argument of perigee: 71.4750°
revolutions per day: 15.05160769
mean anomaly at epoch: 288.8087°
orbit number at epoch: 50691

The dashed part of the orbit path shows where the satellite is in the earth's shadow,  

DLR